[[{"header":{"parameterUnit":"m.s-1","parameterCategory":1,"la1":30.2991,"la2":30.254,"lo1":-89.0895,"lo2":-89.0444,"dy":0.0017,"dx":0.0017,"nx":28,"ny":28,"refTime":"2025-01-28T09:00:00:Z","depth":0,"parameterNumber":2,"parameterNumberName":"U-component_of_WINDS"},"data":[0,0,0,0,0,0,0,0,0,0,0,0,0,0,0,0,0,0,0,0,0,0,0,0,0,0,0,0,0,0,0,0,0,0,0,0,0,0,0,0,0,0,0,0,0,0,0,0,0,0,0,0,0,0,0,0,0,0,0.3119,0.3119,0,0.3108,0.3108,0.3108,0.3086,0.3086,0.3086,0.3085,0.3074,0.3074,0.3074,0,0,0,0,0,0,0,0,0,0,0,0,0,0.3123,0.3123,0.3119,0.3119,0.3119,0.3108,0.3108,0.3108,0.3087,0.3086,0.3086,0.3085,0.3074,0.3074,0.3074,0,0,0,0,0,0,0,0,0,0,0,0,0,0.3117,0.3123,0.3119,0.3107,0.3106,0.3108,0.3108,0.3108,0.3087,0.3086,0.3085,0.3085,0.3074,0.3074,0.3074,0.3087,0,0,0.3074,0.3074,0,0,0,0,0,0,0,0,0.3118,0.3117,0.3109,0.3108,0.3107,0.3098,0.3105,0.3101,0.3087,0.3094,0.3085,0.3085,0.3082,0.3082,0.3081,0.3086,0.3086,0.3074,0.3074,0.3074,0.3074,0,0,0,0,0,0,0,0.3118,0.3117,0.3115,0.3109,0.3107,0.3102,0.3101,0.3104,0.3092,0.3093,0.3092,0.3091,0.3081,0.3081,0.308,0.3086,0.3074,0.3074,0.3074,0.3074,0.3101,0.3102,0,0,0,0,0,0,0.312,0.3118,0.3115,0.3114,0.3111,0.3103,0.3101,0.3101,0.3092,0.3089,0.3091,0.309,0.3081,0.308,0.308,0.3094,0.3074,0.3074,0.3074,0.3101,0.3102,0.3102,0,0,0,0,0,0,0.312,0.312,0.3115,0.3116,0.3115,0.3103,0.3104,0.3101,0.3101,0.309,0.3088,0.3093,0.308,0.308,0.3085,0.3094,0.3074,0.3075,0.31,0.3101,0.3102,0.3123,0,0,0,0,0,0,0.312,0.312,0.3125,0.3116,0.3115,0.3121,0.3104,0.3102,0.3101,0.3099,0.3091,0.3089,0.308,0.3085,0.3085,0.3093,0.3075,0.3099,0.31,0.3102,0.3122,0.3125,0.3128,0,0,0,0,0,0.3121,0.3131,0.3125,0.3125,0.312,0.3121,0.3121,0.311,0.3102,0.3106,0.31,0.3089,0.3093,0.3086,0.3086,0.3094,0.3099,0.31,0.3101,0.3121,0.3124,0.3128,0,0,0,0,0,0,0.3141,0.313,0.3123,0.3131,0.3127,0.3118,0.3123,0.3115,0.3113,0.3111,0.3098,0.3097,0.3104,0.31,0.3092,0.3106,0.3094,0.3096,0.3109,0.3112,0.3115,0.3116,0.3075,0,0,0,0,0,0.3147,0.3149,0.3139,0.3147,0.3145,0.3135,0.3135,0.3127,0.3123,0.3121,0.3115,0.3111,0.3111,0.3112,0.3111,0.3122,0.3119,0.3127,0.313,0.3133,0.3134,0.3139,0.3142,0.3107,0.3107,0.3107,0,0,0.3158,0.3152,0.3154,0.3151,0.3147,0.3149,0.3134,0.3136,0.3138,0.3121,0.3126,0.3122,0.3117,0.3125,0.3128,0.3121,0.3143,0.3135,0.3137,0.3136,0.3141,0.3144,0.3147,0.3108,0.3108,0.3108,0,0,0.318,0.3176,0.3182,0.3179,0.3173,0.3166,0.3168,0.316,0.3156,0.3161,0.3149,0.315,0.3151,0.3148,0.3147,0.3168,0.3158,0.3169,0.3183,0.3189,0.3191,0.3194,0.3201,0.3204,0.317,0.317,0.317,0,0.3194,0.3197,0.3186,0.319,0.3189,0.3175,0.3181,0.3178,0.3173,0.3173,0.3166,0.3167,0.3162,0.3169,0.3175,0.3174,0.3176,0.3169,0.3192,0.3194,0.3196,0.3203,0.3206,0.3171,0.3171,0.3171,0.3171,0,0.3215,0.3218,0.3223,0.3219,0.3219,0.3224,0.3214,0.3215,0.3207,0.3201,0.3207,0.3201,0.3199,0.3201,0.3193,0.3207,0.3203,0.3194,0.3181,0.3201,0.3207,0.321,0.3173,0.3173,0.3172,0.3172,0,0,0.3248,0.3239,0.3241,0.3239,0.3232,0.3234,0.3238,0.3237,0.3238,0.3236,0.3239,0.324,0.3232,0.3231,0.3223,0.3228,0.3245,0.3219,0.3218,0.3223,0.326,0.3266,0.3269,0.3239,0.324,0.324,0.326,0,0.3268,0.3275,0.3266,0.3275,0.3277,0.3264,0.3268,0.3265,0.326,0.326,0.3255,0.3256,0.3245,0.3244,0.3248,0.3242,0.3252,0.3241,0.3242,0.3242,0.3243,0.3272,0.3279,0.3297,0.3262,0.3263,0.3263,0,0.3292,0.329,0.33,0.3293,0.3293,0.3297,0.3295,0.3297,0.3293,0.3289,0.3287,0.3278,0.3283,0.3271,0.3277,0.3269,0.327,0.3267,0.3267,0.3266,0.3253,0.3271,0.3303,0.3306,0.3267,0.3266,0.3266,0,0.3314,0.3315,0.3321,0.3319,0.3312,0.3315,0.3312,0.3307,0.3307,0.3306,0.3306,0.3305,0.3304,0.3304,0.3295,0.3288,0.3302,0.329,0.3298,0.3299,0.3301,0.3301,0.3333,0.3303,0.3303,0.3303,0.3303,0,0.3337,0.3343,0.3331,0.3334,0.3341,0.3331,0.3338,0.3333,0.333,0.3332,0.3321,0.3324,0.3312,0.3314,0.3307,0.3313,0.3313,0.3309,0.3307,0.331,0.331,0.3309,0.3307,0.3303,0.3303,0.3303,0.3303,0,0.3363,0.3355,0.336,0.3353,0.3351,0.3356,0.335,0.3353,0.3348,0.3351,0.3351,0.3342,0.3344,0.3335,0.3335,0.333,0.3339,0.3335,0.334,0.3339,0.3348,0.3347,0.338,0.3383,0.3351,0.3352,0.3352,0,0.3377,0.3381,0.3375,0.3376,0.3373,0.3375,0.3375,0.3366,0.3366,0.3362,0.3366,0.3366,0.3366,0.3369,0.3362,0.3362,0.3358,0.3369,0.3357,0.336,0.3357,0.3357,0.3357,0.3371,0.3372,0.3372,0.3372,0,0.3403,0.3399,0.34,0.3399,0.3399,0.3398,0.3396,0.3398,0.3387,0.3389,0.339,0.339,0.339,0.339,0.3389,0.3386,0.3377,0.3376,0.3378,0.338,0.3383,0.3381,0.3346,0.3375,0.3375,0.3375,0.3374,0.3374,0.3423,0.3427,0.3423,0.3424,0.3421,0.342,0.3423,0.3418,0.3419,0.3418,0.3412,0.3415,0.3411,0.3408,0.3406,0.3408,0.3403,0.3406,0.3406,0.3407,0.3408,0.3383,0.3408,0.3408,0.3408,0.3408,0.3408,0,0.3448,0.3445,0.3446,0.3444,0.3445,0.3438,0.3436,0.3437,0.3439,0.3437,0.3437,0.3438,0.3439,0.3433,0.3433,0.3436,0.3432,0.3436,0.3435,0.3434,0.3413,0.3411,0.3439,0.3439,0.3439,0.3439,0.3439,0.3439,0.3461,0.3467,0.3463,0.3467,0.3464,0.3466,0.3466,0.3464,0.3462,0.3465,0.3465,0.3462,0.3458,0.3458,0.3458,0.3456,0.3457,0.3462,0.3459,0.3439,0.3436,0.3433,0.3431,0.3462,0.3462,0.348,0.348,0.348]},{"header":{"parameterUnit":"m.s-1","parameterCategory":1,"la1":30.2991,"la2":30.254,"lo1":-89.0895,"lo2":-89.0444,"dy":0.0017,"dx":0.0017,"nx":28,"ny":28,"refTime":"2025-01-28T09:00:00:Z","depth":0,"parameterNumber":3,"parameterNumberName":"V-component_of_WINDS"},"data":[0,0,0,0,0,0,0,0,0,0,0,0,0,0,0,0,0,0,0,0,0,0,0,0,0,0,0,0,0,0,0,0,0,0,0,0,0,0,0,0,0,0,0,0,0,0,0,0,0,0,0,0,0,0,0,0,0,0,-3.0451,-3.0451,0,-3.0492,-3.0492,-3.0493,-3.0475,-3.0474,-3.0473,-3.0472,-3.051,-3.0512,-3.0514,0,0,0,0,0,0,0,0,0,0,0,0,0,-3.0355,-3.0356,-3.0451,-3.0451,-3.0452,-3.0492,-3.0492,-3.0493,-3.0475,-3.0474,-3.0473,-3.0472,-3.051,-3.0512,-3.0514,0,0,0,0,0,0,0,0,0,0,0,0,0,-3.0396,-3.0357,-3.045,-3.0448,-3.0448,-3.0492,-3.0492,-3.0493,-3.0476,-3.0474,-3.0473,-3.0471,-3.0509,-3.0512,-3.0515,-3.0562,0,0,-3.0523,-3.0525,0,0,0,0,0,0,0,0,-3.0394,-3.0399,-3.0448,-3.0448,-3.0448,-3.0477,-3.0472,-3.0516,-3.0476,-3.0465,-3.0472,-3.0471,-3.05,-3.0504,-3.0515,-3.0564,-3.0565,-3.0524,-3.0525,-3.0527,-3.0528,0,0,0,0,0,0,0,-3.0391,-3.0398,-3.0467,-3.0448,-3.0449,-3.0444,-3.0448,-3.048,-3.049,-3.0466,-3.0465,-3.047,-3.05,-3.0512,-3.0515,-3.0566,-3.0524,-3.0526,-3.0528,-3.0529,-3.0658,-3.066,0,0,0,0,0,0,-3.0388,-3.0395,-3.0465,-3.0468,-3.0417,-3.0447,-3.0452,-3.0469,-3.049,-3.0492,-3.0471,-3.0469,-3.0508,-3.0512,-3.0517,-3.0575,-3.0527,-3.0529,-3.0531,-3.0656,-3.0658,-3.066,0,0,0,0,0,0,-3.0386,-3.0395,-3.0464,-3.0431,-3.044,-3.045,-3.047,-3.0471,-3.0483,-3.0494,-3.0495,-3.0482,-3.0507,-3.0512,-3.0552,-3.0576,-3.0531,-3.0533,-3.0654,-3.0657,-3.0659,-3.0691,0,0,0,0,0,0,-3.0384,-3.0394,-3.0413,-3.0432,-3.0442,-3.0499,-3.0471,-3.0473,-3.0488,-3.0486,-3.0504,-3.0506,-3.0506,-3.0547,-3.0554,-3.0579,-3.0536,-3.0652,-3.0656,-3.0659,-3.0688,-3.0694,-3.07,0,0,0,0,0,-3.038,-3.0418,-3.0414,-3.0422,-3.0465,-3.05,-3.0506,-3.0506,-3.049,-3.0509,-3.0516,-3.0505,-3.0572,-3.0552,-3.0559,-3.0585,-3.0651,-3.0655,-3.0658,-3.0685,-3.0693,-3.07,0,0,0,0,0,0,-3.0399,-3.0421,-3.0416,-3.0461,-3.048,-3.0497,-3.052,-3.0514,-3.0536,-3.0533,-3.0531,-3.0536,-3.0577,-3.0584,-3.0561,-3.0633,-3.0609,-3.0614,-3.0627,-3.0634,-3.064,-3.0638,-3.0538,0,0,0,0,0,-3.0409,-3.0437,-3.0454,-3.0492,-3.0502,-3.051,-3.0525,-3.0525,-3.0542,-3.0549,-3.056,-3.0577,-3.0602,-3.0618,-3.0642,-3.0689,-3.0693,-3.0711,-3.0717,-3.0722,-3.0726,-3.0754,-3.0762,-3.0673,-3.0673,-3.0673,0,0,-3.0429,-3.0444,-3.0461,-3.0497,-3.0511,-3.0539,-3.0516,-3.0547,-3.0568,-3.0553,-3.0592,-3.0601,-3.0619,-3.0663,-3.0683,-3.0671,-3.0752,-3.0726,-3.073,-3.0733,-3.0759,-3.0767,-3.0775,-3.0675,-3.0675,-3.0675,0,0,-3.048,-3.0494,-3.0529,-3.0544,-3.0567,-3.0572,-3.0581,-3.06,-3.0606,-3.0645,-3.0636,-3.066,-3.0703,-3.0718,-3.073,-3.079,-3.0781,-3.0798,-3.0829,-3.0856,-3.0863,-3.087,-3.0892,-3.09,-3.0803,-3.0803,-3.0803,0,-3.0502,-3.0546,-3.0547,-3.058,-3.0596,-3.0587,-3.0623,-3.0636,-3.0665,-3.0676,-3.0662,-3.0718,-3.073,-3.0778,-3.0793,-3.0803,-3.0813,-3.0796,-3.0862,-3.0869,-3.0874,-3.0896,-3.0905,-3.0805,-3.0804,-3.0804,-3.0804,0,-3.0572,-3.0602,-3.0628,-3.0658,-3.0677,-3.0711,-3.0717,-3.0736,-3.0735,-3.0741,-3.0782,-3.0796,-3.0824,-3.0835,-3.0832,-3.0883,-3.0876,-3.0862,-3.0838,-3.0885,-3.0906,-3.0914,-3.0807,-3.0807,-3.0806,-3.0806,0,0,-3.0635,-3.0668,-3.0677,-3.0692,-3.0717,-3.074,-3.0774,-3.0803,-3.082,-3.084,-3.0868,-3.0906,-3.0895,-3.091,-3.0909,-3.0932,-3.0981,-3.0916,-3.0917,-3.0929,-3.104,-3.1051,-3.1061,-3.0975,-3.0977,-3.0978,-3.1039,0,-3.0689,-3.075,-3.0754,-3.0809,-3.0838,-3.0831,-3.086,-3.0879,-3.0886,-3.0912,-3.0919,-3.0947,-3.0929,-3.0938,-3.0961,-3.097,-3.1003,-3.0966,-3.1002,-3.1003,-3.0998,-3.1071,-3.1082,-3.1139,-3.1047,-3.1048,-3.1049,0,-3.076,-3.0786,-3.0844,-3.0868,-3.088,-3.0907,-3.0935,-3.0959,-3.098,-3.0984,-3.1002,-3.0999,-3.1033,-3.1008,-3.1056,-3.103,-3.1045,-3.1052,-3.1054,-3.1058,-3.1029,-3.1078,-3.1157,-3.1166,-3.1062,-3.1061,-3.106,0,-3.0802,-3.0851,-3.0893,-3.0905,-3.0933,-3.0953,-3.0965,-3.0985,-3.1003,-3.1027,-3.1038,-3.1065,-3.108,-3.1101,-3.1105,-3.1086,-3.1153,-3.1128,-3.1158,-3.1158,-3.1173,-3.1172,-3.1257,-3.1181,-3.1181,-3.118,-3.118,0,-3.0863,-3.0899,-3.0913,-3.0939,-3.098,-3.0984,-3.1024,-3.1034,-3.1053,-3.108,-3.1075,-3.1101,-3.1104,-3.1131,-3.1133,-3.1174,-3.118,-3.1184,-3.1185,-3.1186,-3.1185,-3.1196,-3.1192,-3.1183,-3.1182,-3.1182,-3.1181,0,-3.0917,-3.0927,-3.0973,-3.0997,-3.1004,-3.1033,-3.1053,-3.1078,-3.1086,-3.1121,-3.113,-3.1142,-3.1173,-3.1179,-3.1215,-3.1218,-3.1266,-3.1262,-3.126,-3.126,-3.129,-3.1288,-3.1385,-3.1399,-3.1313,-3.1314,-3.1315,0,-3.0955,-3.0984,-3.1012,-3.1031,-3.1045,-3.1076,-3.1095,-3.11,-3.112,-3.1148,-3.117,-3.1201,-3.1227,-3.1277,-3.1289,-3.1317,-3.1314,-3.1346,-3.1318,-3.1319,-3.1316,-3.1315,-3.1319,-3.1352,-3.1353,-3.1354,-3.1354,0,-3.1023,-3.1028,-3.1056,-3.1088,-3.1112,-3.1136,-3.1159,-3.1175,-3.1183,-3.1206,-3.1239,-3.1259,-3.1298,-3.133,-3.1359,-3.137,-3.1364,-3.1363,-3.1372,-3.1373,-3.1372,-3.1375,-3.1276,-3.1361,-3.136,-3.136,-3.1359,-3.1359,-3.1071,-3.1097,-3.1122,-3.1155,-3.1174,-3.1196,-3.1222,-3.1234,-3.1263,-3.1296,-3.1297,-3.1334,-3.1356,-3.1395,-3.1408,-3.1437,-3.1427,-3.1439,-3.1442,-3.1445,-3.1449,-3.1367,-3.1442,-3.1442,-3.1442,-3.1441,-3.1441,0,-3.114,-3.1157,-3.1187,-3.1221,-3.1247,-3.1241,-3.1267,-3.1289,-3.1322,-3.1344,-3.1371,-3.141,-3.1441,-3.1456,-3.1487,-3.1507,-3.1505,-3.1515,-3.1514,-3.1517,-3.1456,-3.1446,-3.1516,-3.1516,-3.1516,-3.1516,-3.1516,-3.1516,-3.1179,-3.1224,-3.1232,-3.1286,-3.1301,-3.1339,-3.1355,-3.1376,-3.1394,-3.1439,-3.1465,-3.1476,-3.1495,-3.1528,-3.1556,-3.156,-3.1572,-3.1584,-3.1586,-3.1529,-3.1521,-3.1514,-3.1505,-3.1586,-3.1586,-3.1645,-3.1645,-3.1646]}]]